Owatonna, MN

3:47 AM CDT on September 29, 2016 (GMT -0500)
Owatonna Degner Regional

Weather History for KOWA - June, 2013

Change the Weather History Date:

Sunday, June 2, 2013

  Actual Average Record
Temperature  
Mean Temperature 56 °F -  
Max Temperature 64 °F 76 °F 91 °F (1988)
Min Temperature 48 °F 49 °F 38 °F (1969)
Degree Days  
Heating Degree Days 9    
Growing Degree Days 6 (Base 50)    
Moisture  
Dew Point 43 °F    
Average Humidity 65    
Maximum Humidity 87    
Minimum Humidity 40    
Precipitation  
Precipitation 0.00 in - - ()
Sea Level Pressure  
Sea Level Pressure 30.03 in    
Wind  
Wind Speed 9 mph (NNW)    
Max Wind Speed 17 mph    
Max Gust Speed 22 mph    
Visibility 10 miles    
Events      
Averages and records for this station are not official NWS values.
T = Trace of Precipitation, MM = Missing Value Source: NWS Daily Summary

Daily Weather History Graph

Daily Weather History Graph

Search for Another Location

Airport or City:

Trip Planner

Search our weather history database for the weather conditions in past years. The results will help you decide how hot, cold, wet, or windy it might be!

Date:

Astronomy

Jun. 02, 2013 Rise Set
Actual Time 5:32 AM CDT 8:50 PM CDT
Civil Twilight 4:56 AM CDT 9:26 PM CDT
Nautical Twilight 4:10 AM CDT 10:12 PM CDT
Astronomical Twilight 3:13 AM CDT 11:10 PM CDT
Moon 2:10 AM CDT (6/2) 3:11 PM CDT (6/2)
Length of Visible Light 16h 29m
Length of Day
15h 18m
Waning Crescent, 30% of the Moon is Illuminated
Jun 2
Waning Crescent
Jun 8
New
Jun 16
First Quarter
Jun 23
Full
Jun 29
Last Quarter

Hourly Weather History & Observations

Time (CDT) Temp. Dew Point Humidity Pressure Visibility Wind Dir Wind Speed Gust Speed Precip Events Conditions
12:14 AM 51.8 °F 44.6 °F 76% 29.94 in 10.0 mi North 13.8 mph - N/A   Overcast
12:34 AM 51.8 °F 44.6 °F 76% 29.94 in 10.0 mi NNW 12.7 mph 16.1 mph N/A   Overcast
12:54 AM 51.8 °F 44.6 °F 76% 29.95 in 10.0 mi NNW 10.4 mph - N/A   Overcast
1:14 AM 51.8 °F 44.6 °F 76% 29.95 in 10.0 mi NNW 9.2 mph - N/A   Overcast
1:34 AM 51.8 °F 46.4 °F 82% 29.95 in 10.0 mi NNW 6.9 mph - N/A   Overcast
1:54 AM 51.8 °F 44.6 °F 76% 29.95 in 10.0 mi NNW 13.8 mph 17.3 mph N/A   Overcast
2:14 AM 51.8 °F 44.6 °F 76% 29.95 in 10.0 mi North 15.0 mph 19.6 mph N/A   Overcast
2:34 AM 51.8 °F 44.6 °F 76% 29.96 in 10.0 mi North 11.5 mph - N/A   Overcast
2:54 AM 51.8 °F 42.8 °F 71% 29.97 in 10.0 mi North 10.4 mph - N/A   Overcast
3:14 AM 51.8 °F 42.8 °F 71% 29.97 in 10.0 mi NNW 17.3 mph 21.9 mph N/A   Overcast
3:34 AM 50.0 °F 41.0 °F 71% 29.98 in 10.0 mi North 15.0 mph - N/A   Scattered Clouds
3:54 AM 48.2 °F 41.0 °F 76% 29.98 in 10.0 mi North 13.8 mph - N/A   Clear
4:14 AM 48.2 °F 41.0 °F 76% 29.99 in 10.0 mi North 11.5 mph - N/A   Mostly Cloudy
4:34 AM 48.2 °F 41.0 °F 76% 29.99 in 10.0 mi North 11.5 mph - N/A   Overcast
4:54 AM 48.2 °F 41.0 °F 76% 30.00 in 10.0 mi North 11.5 mph - N/A   Overcast
5:14 AM 48.2 °F 42.8 °F 82% 30.01 in 10.0 mi North 8.1 mph - N/A   Overcast
5:34 AM 48.2 °F 42.8 °F 82% 30.01 in 10.0 mi North 5.8 mph - N/A   Overcast
5:54 AM 48.2 °F 42.8 °F 82% 30.02 in 10.0 mi North 4.6 mph - N/A   Overcast
6:14 AM 48.2 °F 42.8 °F 82% 30.02 in 10.0 mi NNW 4.6 mph - N/A   Overcast
6:34 AM 50.0 °F 44.6 °F 82% 30.03 in 10.0 mi North 5.8 mph - N/A   Overcast
6:54 AM 50.0 °F 42.8 °F 76% 30.03 in 10.0 mi North 6.9 mph - N/A   Overcast
7:14 AM 50.0 °F 44.6 °F 82% 30.04 in 10.0 mi North 5.8 mph - N/A   Overcast
7:34 AM 51.8 °F 44.6 °F 76% 30.05 in 10.0 mi North 10.4 mph - N/A   Overcast
7:54 AM 51.8 °F 42.8 °F 71% 30.05 in 10.0 mi North 9.2 mph - N/A   Overcast
8:14 AM 51.8 °F 42.8 °F 71% 30.06 in 10.0 mi North 10.4 mph - N/A   Overcast
8:34 AM 51.8 °F 42.8 °F 71% 30.07 in 10.0 mi North 12.7 mph - N/A   Overcast
8:54 AM 53.6 °F 44.6 °F 72% 30.07 in 10.0 mi North 9.2 mph - N/A   Overcast
9:14 AM 51.8 °F 44.6 °F 76% 30.08 in 10.0 mi North 9.2 mph - N/A   Overcast
9:34 AM 51.8 °F 44.6 °F 76% 30.08 in 10.0 mi North 8.1 mph - N/A   Overcast
9:54 AM 51.8 °F 44.6 °F 76% 30.08 in 10.0 mi NNW 9.2 mph - N/A   Overcast
10:14 AM 55.4 °F 44.6 °F 67% 30.08 in 10.0 mi NW 8.1 mph 16.1 mph N/A   Mostly Cloudy
10:34 AM 55.4 °F 42.8 °F 63% 30.08 in 10.0 mi NNW 9.2 mph - N/A   Scattered Clouds
10:54 AM 55.4 °F 42.8 °F 63% 30.08 in 10.0 mi NW 10.4 mph - N/A   Scattered Clouds
11:14 AM 55.4 °F 42.8 °F 63% 30.08 in 10.0 mi North 9.2 mph 16.1 mph N/A   Scattered Clouds
11:34 AM 57.2 °F 42.8 °F 59% 30.07 in 10.0 mi NNW 8.1 mph - N/A   Scattered Clouds
11:54 AM 57.2 °F 42.8 °F 59% 30.07 in 10.0 mi NNW 8.1 mph - N/A   Scattered Clouds
12:14 PM 59.0 °F 44.6 °F 59% 30.07 in 10.0 mi NW 5.8 mph - N/A   Scattered Clouds
12:34 PM 59.0 °F 44.6 °F 59% 30.07 in 10.0 mi WNW 6.9 mph - N/A   Scattered Clouds
12:54 PM 59.0 °F 42.8 °F 55% 30.07 in 10.0 mi NNW 8.1 mph - N/A   Clear
1:14 PM 60.8 °F 42.8 °F 52% 30.07 in 10.0 mi NNE 9.2 mph - N/A   Clear
1:34 PM 60.8 °F 42.8 °F 52% 30.06 in 10.0 mi NW 9.2 mph - N/A   Clear
1:54 PM 60.8 °F 42.8 °F 52% 30.06 in 10.0 mi NNW 10.4 mph 16.1 mph N/A   Clear
2:14 PM 62.6 °F 44.6 °F 52% 30.05 in 10.0 mi North 10.4 mph - N/A   Clear
2:34 PM 62.6 °F 44.6 °F 52% 30.06 in 10.0 mi NNW 12.7 mph 18.4 mph N/A   Clear
2:54 PM 62.6 °F 42.8 °F 48% 30.05 in 10.0 mi NNW 6.9 mph - N/A   Clear
3:14 PM 62.6 °F 42.8 °F 48% 30.05 in 10.0 mi NW 10.4 mph - N/A   Clear
3:34 PM 62.6 °F 44.6 °F 52% 30.05 in 10.0 mi NNW 12.7 mph 17.3 mph N/A   Clear
3:54 PM 64.4 °F 42.8 °F 45% 30.05 in 10.0 mi NW 8.1 mph - N/A   Clear
4:14 PM 64.4 °F 42.8 °F 45% 30.05 in 10.0 mi West 6.9 mph - N/A   Clear
4:34 PM 62.6 °F 41.0 °F 45% 30.04 in 10.0 mi WNW 9.2 mph - N/A   Clear
4:54 PM 64.4 °F 42.8 °F 45% 30.04 in 10.0 mi NNW 5.8 mph - N/A   Clear
5:14 PM 62.6 °F 41.0 °F 45% 30.04 in 10.0 mi North 4.6 mph - N/A   Clear
5:34 PM 64.4 °F 39.2 °F 40% 30.03 in 10.0 mi NW 4.6 mph - N/A   Clear
5:54 PM 62.6 °F 42.8 °F 48% 30.03 in 10.0 mi NW 5.8 mph - N/A   Clear
6:14 PM 62.6 °F 41.0 °F 45% 30.03 in 10.0 mi North 4.6 mph - N/A   Clear
6:34 PM 62.6 °F 42.8 °F 48% 30.03 in 10.0 mi NNW 5.8 mph - N/A   Clear
6:54 PM 62.6 °F 41.0 °F 45% 30.02 in 10.0 mi North 3.5 mph - N/A   Clear
7:14 PM 62.6 °F 42.8 °F 48% 30.02 in 10.0 mi Calm Calm - N/A   Clear
7:34 PM 62.6 °F 42.8 °F 48% 30.03 in 10.0 mi NNW 5.8 mph - N/A   Clear
7:54 PM 62.6 °F 42.8 °F 48% 30.02 in 10.0 mi NNE 3.5 mph - N/A   Clear
8:14 PM 60.8 °F 42.8 °F 52% 30.02 in 10.0 mi North 3.5 mph - N/A   Clear
8:34 PM 60.8 °F 42.8 °F 52% 30.02 in 10.0 mi North 4.6 mph - N/A   Clear
8:54 PM 60.8 °F 42.8 °F 52% 30.02 in 10.0 mi Calm Calm - N/A   Clear
9:14 PM 60.8 °F 42.8 °F 52% 30.03 in 10.0 mi Calm Calm - N/A   Clear
9:34 PM 57.2 °F 46.4 °F 67% 30.03 in 10.0 mi Calm Calm - N/A   Clear
9:54 PM 55.4 °F 46.4 °F 72% 30.04 in 10.0 mi Calm Calm - N/A   Clear
10:14 PM 53.6 °F 44.6 °F 72% 30.04 in 10.0 mi Calm Calm - N/A   Clear
10:34 PM 53.6 °F 46.4 °F 77% 30.04 in 10.0 mi Calm Calm - N/A   Clear
10:54 PM 53.6 °F 46.4 °F 77% 30.04 in 10.0 mi Calm Calm - N/A   Clear
11:14 PM 51.8 °F 46.4 °F 82% 30.04 in 10.0 mi Calm Calm - N/A   Clear
11:34 PM 50.0 °F 44.6 °F 82% 30.04 in 10.0 mi Calm Calm - N/A   Clear
11:54 PM 50.0 °F 46.4 °F 87% 30.04 in 10.0 mi Calm Calm - N/A   Clear